Starlink 34365

operational
NORAD ID: 64671 Int'l Des: 2025-139 Owner: SPXS Country: US Constellation: starlink
LEOCIRCULAR

About Starlink 34365

Description loading...

Live Position

Loading 3D Globe...

Upcoming Passes

Altitude History

Altitude vs Time

uPlot chart will show altitude changes over time

Two-Line Element Set

1 64671U 25139H 25338.35134170 .00036619 00000-0 12411-2 0 9995
2 64671 53.1569 210.1423 0000953 95.4329 264.6780 15.30233609 25740
Epoch: Dec 4, 2025 • Age: 19 hours

Current Status

Altitude 481.3 km
Velocity 7.62 km/s
Sub-Earth Point -21.39°S, 68.51°E
Launch Date Jun 28, 2025
Age 0.4 years
Type internet

Technical Details

Classification Payload
Mass 575.00 kg
Dry Mass 530.00 kg
Total Mass 575.00 kg
Length 0.30 m
Diameter 4.10 m
Span 29.00 m
Shape Box + pan
Manufacturer SPXS
Bus Type Starlink V2MO
Phase Status In Orbit
Owner/State SPXS/US

Large Constellations

Loading constellations...